Elmira, NY

6:14 PM EDT on September 20, 2017 (GMT -0400)
Elmira-Corning Regional

Weather History for KELM - November, 2012

Change the Weather History Date:

Monday, November 5, 2012

  Actual Average Record
Temperature  
Mean Temperature 35 °F -  
Max Temperature 37 °F 52 °F 75 °F (2015)
Min Temperature 32 °F 33 °F 16 °F (1991)
Degree Days  
Heating Degree Days 30    
Moisture  
Dew Point 24 °F    
Average Humidity 66    
Maximum Humidity 82    
Minimum Humidity 54    
Precipitation  
Precipitation 0.00 in - - ()
Sea Level Pressure  
Sea Level Pressure 30.13 in    
Wind  
Wind Speed 4 mph (NNW)    
Max Wind Speed 15 mph    
Max Gust Speed -    
Visibility 10 miles    
Events      
Averages and records for this station are not official NWS values.
T = Trace of Precipitation, MM = Missing Value Source: NWS Daily Summary

Daily Weather History Graph

Daily Weather History Graph

Search for Another Location

Airport or City:

Trip Planner

Search our weather history database for the weather conditions in past years. The results will help you decide how hot, cold, wet, or windy it might be!

Date:

Astronomy

Nov. 05, 2012 Rise Set
Actual Time 6:46 AM EST 4:55 PM EST
Civil Twilight 6:16 AM EST 5:25 PM EST
Nautical Twilight 5:43 AM EST 5:58 PM EST
Astronomical Twilight 5:10 AM EST 6:31 PM EST
Moon 10:31 PM EST (11/5) 12:04 PM EST (11/5)
Length of Visible Light 11h 08m
Length of Day
10h 09m
Waning Gibbous, 63% of the Moon is Illuminated
Nov 5
Waning Gibbous
Nov 6
Last Quarter
Nov 13
New
Nov 20
First Quarter
Nov 28
Full

Hourly Weather History & Observations

Time (EST) Temp. Windchill Dew Point Humidity Pressure Visibility Wind Dir Wind Speed Gust Speed Precip Events Conditions
12:53 AM 33.1 °F - 23.0 °F 66% 30.07 in 10.0 mi Calm Calm - N/A   Overcast
1:53 AM 34.0 °F - 23.0 °F 64% 30.06 in 10.0 mi Calm Calm - N/A   Overcast
2:42 AM 33.8 °F - 24.8 °F 70% 30.03 in 10.0 mi Calm Calm - N/A   Overcast
2:53 AM 34.0 °F - 25.0 °F 70% 30.06 in 10.0 mi Calm Calm - N/A   Overcast
4:53 AM 34.0 °F 29.8 °F 26.1 °F 73% 30.07 in 10.0 mi WNW 4.6 mph - N/A   Overcast
5:53 AM 34.0 °F 28.8 °F 26.1 °F 73% 30.08 in 10.0 mi West 5.8 mph - N/A   Overcast
6:53 AM 33.1 °F 30.0 °F 28.0 °F 82% 30.10 in 10.0 mi WNW 3.5 mph - 0.00 in   Overcast
7:53 AM 33.1 °F 28.7 °F 28.0 °F 82% 30.12 in 10.0 mi WSW 4.6 mph - N/A   Overcast
8:53 AM 35.1 °F 27.9 °F 24.1 °F 64% 30.12 in 10.0 mi NW 9.2 mph - N/A   Overcast
9:53 AM 36.0 °F 31.1 °F 23.0 °F 59% 30.12 in 10.0 mi Variable 5.8 mph - N/A   Overcast
10:53 AM 37.0 °F 33.3 °F 23.0 °F 57% 30.13 in 10.0 mi NNW 4.6 mph - N/A   Overcast
11:53 AM 37.0 °F 29.3 °F 24.1 °F 59% 30.12 in 10.0 mi NW 11.5 mph - N/A   Overcast
12:53 PM 37.9 °F 30.9 °F 25.0 °F 60% 30.11 in 10.0 mi WNW 10.4 mph - N/A   Overcast
1:53 PM 35.1 °F 25.5 °F 27.0 °F 72% 30.12 in 10.0 mi NNE 15.0 mph - 0.00 in   Overcast
2:53 PM 35.1 °F 28.6 °F 26.1 °F 70% 30.13 in 10.0 mi NNE 8.1 mph - N/A   Overcast
3:53 PM 35.1 °F 28.6 °F 25.0 °F 67% 30.13 in 10.0 mi North 8.1 mph - N/A   Overcast
4:53 PM 34.0 °F 28.0 °F 25.0 °F 70% 30.14 in 10.0 mi NNE 6.9 mph - N/A   Overcast
5:53 PM 34.0 °F 27.2 °F 24.1 °F 67% 30.16 in 10.0 mi NNE 8.1 mph - N/A   Overcast
6:53 PM 34.0 °F 29.8 °F 24.1 °F 67% 30.18 in 10.0 mi NNE 4.6 mph - N/A   Overcast
7:53 PM 34.0 °F 28.8 °F 21.0 °F 59% 30.19 in 10.0 mi NNE 5.8 mph - N/A   Overcast
8:53 PM 33.1 °F 26.9 °F 19.0 °F 56% 30.20 in 10.0 mi NE 6.9 mph - N/A   Overcast
9:53 PM 33.1 °F 30.0 °F 18.0 °F 54% 30.20 in 10.0 mi NW 3.5 mph - N/A   Overcast
10:53 PM 33.1 °F 30.0 °F 18.0 °F 54% 30.20 in 10.0 mi NW 3.5 mph - N/A   Overcast
11:53 PM 32.0 °F - 19.9 °F 61% 30.20 in 10.0 mi Calm Calm - N/A   Overcast